Albany, VT

11:33 PM EST on February 07, 2016 (GMT -0500)
Newport State

Weather History for KEFK - January, 2013

Change the Weather History Date:

Wednesday, January 30, 2013

  Actual Average Record
Temperature  
Mean Temperature 40 °F -  
Max Temperature 48 °F 25 °F 48 °F (2013)
Min Temperature 32 °F 5 °F -23 °F (1948)
Degree Days  
Heating Degree Days 25    
Moisture  
Dew Point 37 °F    
Average Humidity 90    
Maximum Humidity 92    
Minimum Humidity 87    
Precipitation  
Precipitation 0.00 in - - ()
Sea Level Pressure  
Sea Level Pressure 29.57 in    
Wind  
Wind Speed 11 mph (South)    
Max Wind Speed 18 mph    
Max Gust Speed 24 mph    
Visibility 8 miles    
Events Rain    
Averages and records for this station are not official NWS values.
T = Trace of Precipitation, MM = Missing Value Source: NWS Daily Summary

Daily Weather History Graph

Daily Weather History Graph

Search for Another Location

Airport or City:

Trip Planner

Search our weather history database for the weather conditions in past years. The results will help you decide how hot, cold, wet, or windy it might be!

Date:

Astronomy

Jan. 30, 2013 Rise Set
Actual Time 7:10 AM EST 4:54 PM EST
Civil Twilight 6:39 AM EST 5:26 PM EST
Nautical Twilight 6:03 AM EST 6:01 PM EST
Astronomical Twilight 5:29 AM EST 6:35 PM EST
Moon 9:03 PM EST (1/30) 8:25 AM EST (1/30)
Length of Visible Light 10h 46m
Length of Day
9h 44m
Waning Gibbous, 88% of the Moon is Illuminated
Jan 30
Waning Gibbous
Feb 3
Last Quarter
Feb 10
New
Feb 17
First Quarter
Feb 25
Full

Hourly Weather History & Observations

Time (EST) Temp. Windchill Dew Point Humidity Pressure Visibility Wind Dir Wind Speed Gust Speed Precip Events Conditions
12:15 AM 32.2 °F 25.8 °F 29.8 °F 91% 29.94 in 5.0 mi South 6.9 mph - N/A   Overcast
12:35 AM 32.0 °F 24.2 °F 29.8 °F 92% 29.93 in 10.0 mi South 9.2 mph - N/A   Overcast
12:55 AM 32.2 °F 25.0 °F 30.0 °F 92% 29.92 in 10.0 mi South 8.1 mph - N/A   Overcast
1:15 AM 32.4 °F 23.5 °F 30.2 °F 92% 29.91 in 5.0 mi South 11.5 mph - N/A   Overcast
1:35 AM 32.5 °F 23.7 °F 30.0 °F 90% 29.90 in 5.0 mi SSE 11.5 mph 19.6 mph N/A   Overcast
1:55 AM 32.5 °F 23.7 °F 30.0 °F 90% 29.90 in 5.0 mi South 11.5 mph - N/A   Overcast
2:15 AM 32.5 °F 26.2 °F 30.2 °F 91% 29.89 in 5.0 mi South 6.9 mph 16.1 mph N/A   Overcast
2:35 AM 32.9 °F 24.7 °F 30.6 °F 91% 29.89 in 5.0 mi SSE 10.4 mph 16.1 mph N/A   Overcast
2:55 AM 33.1 °F 24.9 °F 30.6 °F 90% 29.86 in 4.0 mi South 10.4 mph 16.1 mph N/A   Overcast
3:15 AM 33.3 °F 22.8 °F 30.7 °F 90% 29.85 in 4.0 mi SSE 16.1 mph - N/A   Overcast
3:35 AM 33.3 °F 25.7 °F 30.9 °F 91% 29.84 in 4.0 mi South 9.2 mph 17.3 mph N/A   Overcast
3:55 AM 33.8 °F 24.8 °F 31.1 °F 90% 29.83 in 7.0 mi South 12.7 mph 19.6 mph N/A Rain Light Rain
4:15 AM 33.8 °F 23.9 °F 31.1 °F 90% 29.82 in 10.0 mi South 15.0 mph 21.9 mph N/A Rain Rain
4:35 AM 33.8 °F 23.2 °F 31.1 °F 90% 29.81 in 10.0 mi South 17.3 mph 23.0 mph N/A Rain Light Rain
4:55 AM 33.8 °F 23.9 °F 31.1 °F 90% 29.82 in 10.0 mi SSE 15.0 mph - N/A   Drizzle
5:15 AM 33.8 °F 24.8 °F 31.3 °F 90% 29.80 in 5.0 mi SSE 12.7 mph - N/A Rain Rain
5:35 AM 33.8 °F 24.8 °F 31.6 °F 92% 29.78 in 7.0 mi SSE 12.7 mph - N/A Rain Light Rain
5:55 AM 34.0 °F 25.0 °F 31.8 °F 92% 29.77 in 10.0 mi SSE 12.7 mph 17.3 mph N/A   Overcast
6:15 AM 34.7 °F 26.9 °F 32.0 °F 90% 29.76 in 10.0 mi South 10.4 mph 19.6 mph N/A   Overcast
6:35 AM 34.7 °F 25.5 °F 32.0 °F 90% 29.75 in 10.0 mi South 13.8 mph 19.6 mph N/A   Overcast
6:55 AM 35.1 °F 25.9 °F 32.2 °F 89% 29.73 in 10.0 mi South 13.8 mph 20.7 mph N/A   Overcast
7:15 AM 35.2 °F 26.2 °F 32.5 °F 90% 29.72 in 10.0 mi South 13.8 mph 19.6 mph N/A   Overcast
7:35 AM 35.4 °F 26.4 °F 32.5 °F 89% 29.71 in 10.0 mi South 13.8 mph 20.7 mph N/A   Overcast
7:55 AM 35.6 °F 25.9 °F 32.9 °F 90% 29.71 in 10.0 mi South 16.1 mph 24.2 mph N/A   Overcast
8:15 AM 35.6 °F 26.6 °F 32.7 °F 89% 29.70 in 10.0 mi South 13.8 mph 21.9 mph N/A   Overcast
8:35 AM 35.8 °F 26.5 °F 32.9 °F 89% 29.69 in 10.0 mi South 15.0 mph 20.7 mph N/A   Overcast
8:55 AM 36.5 °F 27.0 °F 33.6 °F 89% 29.68 in 10.0 mi South 16.1 mph 21.9 mph N/A   Overcast
9:15 AM 37.4 °F 28.2 °F 34.2 °F 88% 29.66 in 10.0 mi South 16.1 mph 23.0 mph N/A   Mostly Cloudy
9:35 AM 38.5 °F 29.9 °F 34.9 °F 87% 29.65 in 10.0 mi South 15.0 mph 21.9 mph N/A   Overcast
9:55 AM 38.5 °F 31.1 °F 34.9 °F 87% 29.63 in 10.0 mi South 11.5 mph 18.4 mph N/A   Overcast
10:15 AM 37.4 °F 30.3 °F 33.8 °F 87% 29.63 in 10.0 mi SSW 10.4 mph - N/A   Overcast
10:35 AM 38.3 °F 30.9 °F 34.7 °F 87% 29.63 in 10.0 mi SSW 11.5 mph 17.3 mph N/A   Overcast
10:55 AM 37.9 °F 29.6 °F 34.7 °F 88% 29.60 in 10.0 mi South 13.8 mph 18.4 mph N/A   Overcast
11:15 AM 38.5 °F 31.1 °F 35.2 °F 88% 29.58 in 10.0 mi South 11.5 mph - N/A   Overcast
11:35 AM 39.0 °F 33.4 °F 35.8 °F 88% 29.56 in 10.0 mi South 8.1 mph 11.5 mph N/A   Overcast
11:55 AM 39.6 °F 33.0 °F 36.5 °F 89% 29.54 in 10.0 mi South 10.4 mph - N/A   Overcast
12:15 PM 39.9 °F 32.5 °F 36.7 °F 88% 29.53 in 10.0 mi South 12.7 mph - N/A   Mostly Cloudy
12:35 PM 40.6 °F 33.8 °F 37.4 °F 88% 29.51 in 10.0 mi South 11.5 mph - N/A   Mostly Cloudy
12:55 PM 41.0 °F 33.9 °F 37.6 °F 88% 29.48 in 10.0 mi South 12.7 mph 18.4 mph N/A   Overcast
1:15 PM 41.0 °F 33.5 °F 37.4 °F 87% 29.48 in 10.0 mi South 13.8 mph 18.4 mph N/A   Scattered Clouds
1:35 PM 40.8 °F 33.7 °F 37.4 °F 88% 29.46 in 10.0 mi South 12.7 mph 16.1 mph N/A   Mostly Cloudy
1:55 PM 40.6 °F 33.0 °F 37.4 °F 88% 29.45 in 10.0 mi South 13.8 mph - N/A   Overcast
2:15 PM 40.5 °F 34.6 °F 37.4 °F 89% 29.44 in 10.0 mi South 9.2 mph - N/A   Mostly Cloudy
2:35 PM 41.2 °F 35.0 °F 38.3 °F 89% 29.44 in 10.0 mi South 10.4 mph - N/A   Mostly Cloudy
2:55 PM 41.5 °F 35.9 °F 38.5 °F 89% 29.44 in 7.0 mi South 9.2 mph - N/A Rain Light Rain
3:15 PM 41.9 °F 36.3 °F 39.2 °F 90% 29.43 in 5.0 mi South 9.2 mph - N/A Rain Rain
3:35 PM 42.3 °F 36.3 °F 39.7 °F 91% 29.42 in 7.0 mi South 10.4 mph 16.1 mph N/A   Mostly Cloudy
3:55 PM 42.8 °F 38.0 °F 40.3 °F 91% 29.42 in 7.0 mi South 8.1 mph - N/A   Light Drizzle
4:15 PM 42.8 °F 35.4 °F 40.3 °F 91% 29.38 in 5.0 mi South 15.0 mph 19.6 mph N/A Rain Light Rain
4:35 PM 44.6 °F 37.4 °F 42.3 °F 91% 29.35 in 7.0 mi South 16.1 mph 23.0 mph N/A   Light Drizzle
4:55 PM 42.6 °F 36.8 °F 39.6 °F 89% 29.38 in 7.0 mi SW 10.4 mph - N/A Rain Light Rain
5:15 PM 41.9 °F 36.3 °F 39.4 °F 91% 29.39 in 5.0 mi SSW 9.2 mph - N/A Rain Light Rain
5:35 PM 43.7 °F 38.1 °F 41.4 °F 91% 29.40 in 7.0 mi South 10.4 mph - N/A   Drizzle
5:55 PM 44.4 °F 39.5 °F 42.1 °F 91% 29.41 in 7.0 mi South 9.2 mph - N/A Rain Light Rain
6:15 PM 44.8 °F 41.0 °F 42.4 °F 91% 29.38 in 7.0 mi South 6.9 mph - N/A   Drizzle
6:35 PM 45.9 °F 41.7 °F 43.3 °F 91% 29.38 in 7.0 mi South 8.1 mph - N/A Rain Light Rain
6:55 PM 46.6 °F - 44.2 °F 92% 29.38 in 5.0 mi South 9.2 mph - N/A Rain Light Rain
7:15 PM 47.5 °F - 45.1 °F 92% 29.37 in 7.0 mi SSW 6.9 mph - N/A Rain Light Rain
7:35 PM 47.1 °F - 44.8 °F 92% 29.38 in 7.0 mi South 8.1 mph - N/A Rain Light Rain
7:55 PM 47.7 °F - 45.3 °F 92% 29.38 in 10.0 mi South 9.2 mph - N/A Rain Light Rain
8:15 PM 48.0 °F - 45.3 °F 90% 29.39 in 10.0 mi South 8.1 mph 17.3 mph N/A Rain Light Rain
8:35 PM 48.2 °F - 45.5 °F 90% 29.38 in 10.0 mi South 6.9 mph - N/A   Light Drizzle
8:55 PM 47.3 °F - 44.6 °F 90% 29.36 in 7.0 mi South 6.9 mph - N/A Rain Light Rain
9:15 PM 47.7 °F - 45.1 °F 91% 29.35 in 10.0 mi SSW 6.9 mph - N/A   Light Drizzle
9:35 PM 47.3 °F - 45.0 °F 92% 29.35 in 7.0 mi South 5.8 mph - N/A   Light Drizzle
9:55 PM 48.6 °F - 46.2 °F 92% 29.32 in 10.0 mi SSE 13.8 mph - N/A Rain Light Rain
10:15 PM 48.9 °F - 45.9 °F 89% 29.32 in 10.0 mi South 11.5 mph - N/A   Light Drizzle
10:35 PM 48.4 °F - 45.3 °F 89% 29.30 in 10.0 mi SSE 18.4 mph - N/A Rain Rain
10:55 PM 47.8 °F - 45.0 °F 90% 29.30 in 10.0 mi South 11.5 mph - N/A Rain Light Rain
11:15 PM 47.7 °F - 45.0 °F 90% 29.30 in 10.0 mi SSE 15.0 mph 20.7 mph N/A Rain Rain
11:35 PM 47.5 °F - 44.6 °F 90% 29.28 in 10.0 mi South 10.4 mph - N/A Rain Light Rain
11:55 PM 48.2 °F - 45.5 °F 90% 29.27 in 10.0 mi South 15.0 mph 19.6 mph N/A Rain Light Rain